STARLINK-5624, 55416

Orbit data source: Space-Track

STARLINK-5624, 55416 is a payload satellite owned by SpaceX/Seattle (US) in LEO that was launched on Tue, 31 Jan 2023 UTC via an FALCON 9 launch vehicle from the Air Force Western Test Range (AFWTR). Payload-class satellites include a variety of spacecraft equipped with specific instruments for various scientific and technological missions. These include communications satellites like Starlink; space stations such as the ISS; scientific satellites like the Hubble; Earth observation satellites from companies like Planet Labs, Umbra, and HawkEye 360; GPS; miniature CubeSats for education and research; and military/defense satellites.

Loading next visibility...
Identifier
55416, 2023-014AB
Orbit
LEO
Country
Flag of USUS
Related business
Manufacturer
SpaceX/Seattle
Mission
Operational Commercial Communications
Bus & Motor
STARLINK, Unknown motor
Mass
305 kg wet, ~290 kg dry
Launch date (UTC)
2023-01-31 (3 years ago)
Launch vehicle
FALCON 9
Launch site
Air Force Western Test Range (AFWTR)
Object type
Payload
Rocket body
Debris
Shape & HBR
Box + 1 Pan, 10.1 m
Radar Cross Section
13.562 m², Large (>1 m²)

Expand to show TLE details & history
Last TLE update: 2 days ago

TLE from 2 days ago
0 STARLINK-5624
1 55416U 23014AB  26171.43635647  .00000346  00000-0  36764-4 0  9999
2 55416  69.9994 185.3514 0003784 264.0953  95.9775 14.98327182186953
Epoch: 2026-06-20T10:28Z
TLE epoch observation values (Epoch: 2026-06-20T10:28:21.199Z)
Latitude
0.00002°
Longitude
119.61207°
Altitude
574.763 km
Speed
7.574 km/s
True Right ascension
12h 21m 24s
True Declination
0° 00' 00"
Sunlit
Object was in daylight at epoch
Visualization orbit readout
Latitude
Unknown
Longitude
Unknown
Altitude
Unknown
Speed
Unknown
Apparent Right ascension
Unknown
Apparent Declination
Unknown
Sunlit
N/A
Visualization observer readout
Local Sidereal Time
21:31:30
Azimuth
Unknown
Elevation
Unknown
Doppler factor
Unknown
Orbital elements
Apogee altitude
572.642 km
Perigee altitude
567.384 km
Semi-major axis
6,948.15 km
Eccentricity
0.00038
Inclination
69.9994°
RAAN
185.3514°
Arg. of periapsis
264.0953°
True anomaly
96.02062°
Mean anomaly
95.9775°
Eccentric anomaly
95.99906°
Mean motion
3.74748 °/min
Orbital period
96.06 mins
BSTAR
0.000036764
Loading maneuver chart data...
Computing Atmospheric mass density...

Documentation

Showing up to 5 results
|